Weather History for KDCU - November, 2012

Change the Weather History Date:

Monday, November 5, 2012

  Actual Average Record
Temperature  
Mean Temperature 46 °F -  
Max Temperature 57 °F 63 °F 83 °F (1959)
Min Temperature 34 °F 40 °F 19 °F (1991)
Degree Days  
Heating Degree Days 20    
Moisture  
Dew Point 38 °F    
Average Humidity 74    
Maximum Humidity 97    
Minimum Humidity 44    
Precipitation  
Precipitation 0.05 in - - ()
Sea Level Pressure  
Sea Level Pressure 30.06 in    
Wind  
Wind Speed 3 mph (ENE)    
Max Wind Speed 10 mph    
Max Gust Speed -    
Visibility 8 miles    
Events      
Averages and records for this station are not official NWS values.
T = Trace of Precipitation, MM = Missing Value Source: NWS Daily Summary

Daily Weather History Graph

Daily Weather History Graph

Search for Another Location

Airport or City:

Trip Planner

Search our weather history database for the weather conditions in past years. The results will help you decide how hot, cold, wet, or windy it might be!

Date:

Astronomy

Nov. 05, 2012 Rise Set
Actual Time 6:12 AM CST 4:49 PM CST
Civil Twilight 5:46 AM CST 5:16 PM CST
Nautical Twilight 5:16 AM CST 5:46 PM CST
Astronomical Twilight 4:46 AM CST 6:15 PM CST
Moon 10:26 PM CST (11/5) 11:31 AM CST (11/5)
Length of Visible Light 11h 30m
Length of Day
10h 37m
Waning Gibbous, 62% of the Moon is Illuminated
Nov 5
Waning Gibbous
Nov 6
Last Quarter
Nov 13
New
Nov 20
First Quarter
Nov 28
Full

Hourly Weather History & Observations

Time (CST) Temp. Windchill Dew Point Humidity Pressure Visibility Wind Dir Wind Speed Gust Speed Precip Events Conditions
12:53 AM 36.0 °F - 35.1 °F 97% 30.13 in 5.0 mi Calm Calm - N/A   Clear
1:53 AM 36.0 °F 33.3 °F 35.1 °F 97% 30.13 in 4.0 mi North 3.5 mph - N/A   Clear
2:53 AM 36.0 °F - 35.1 °F 97% 30.13 in 5.0 mi Calm Calm - N/A   Clear
3:53 AM 37.0 °F 34.5 °F 35.1 °F 93% 30.12 in 8.0 mi NE 3.5 mph - N/A   Clear
4:53 AM 34.0 °F - 33.1 °F 96% 30.14 in 5.0 mi Calm Calm - N/A   Clear
5:53 AM 36.0 °F 33.3 °F 35.1 °F 97% 30.13 in 6.0 mi NE 3.5 mph - N/A   Clear
6:53 AM 37.9 °F 35.5 °F 36.0 °F 93% 30.13 in 6.0 mi ENE 3.5 mph - N/A   Clear
7:53 AM 41.0 °F 39.0 °F 37.9 °F 89% 30.13 in 7.0 mi ENE 3.5 mph - N/A   Clear
8:53 AM 44.1 °F 42.5 °F 39.9 °F 85% 30.12 in 8.0 mi ESE 3.5 mph - N/A   Clear
9:53 AM 48.9 °F - 39.9 °F 71% 30.12 in 9.0 mi Variable 3.5 mph - N/A   Clear
10:53 AM 53.1 °F - 39.9 °F 61% 30.09 in 10.0 mi East 9.2 mph - N/A   Clear
11:53 AM 55.0 °F - 37.9 °F 53% 30.06 in 10.0 mi ESE 5.8 mph - N/A   Scattered Clouds
12:53 PM 57.0 °F - 37.0 °F 47% 30.03 in 10.0 mi Variable 3.5 mph - N/A   Mostly Cloudy
1:53 PM 57.9 °F - 36.0 °F 44% 30.02 in 10.0 mi Calm Calm - N/A   Scattered Clouds
2:53 PM 57.9 °F - 36.0 °F 44% 30.01 in 10.0 mi Calm Calm - N/A   Mostly Cloudy
3:53 PM 55.9 °F - 39.9 °F 55% 29.99 in 10.0 mi ENE 3.5 mph - N/A   Overcast
4:53 PM 55.0 °F - 37.9 °F 53% 30.00 in 10.0 mi Calm Calm - N/A   Overcast
5:53 PM 53.1 °F - 41.0 °F 64% 30.02 in 10.0 mi North 4.6 mph - N/A   Overcast
6:53 PM 53.1 °F - 39.9 °F 61% 30.02 in 10.0 mi Calm Calm - N/A   Overcast
7:53 PM 50.0 °F - 39.9 °F 68% 30.01 in 10.0 mi NNE 10.4 mph - N/A   Overcast
8:53 PM 50.0 °F - 39.9 °F 68% 30.01 in 10.0 mi NNE 8.1 mph - 0.01 in   Overcast
9:53 PM 48.0 °F - 42.1 °F 80% 30.01 in 9.0 mi East 8.1 mph - 0.01 in   Overcast
10:53 PM 46.9 °F - 42.1 °F 83% 30.01 in 8.0 mi NE 5.8 mph - 0.01 in   Overcast
11:53 PM 46.0 °F 43.1 °F 43.0 °F 89% 30.00 in 7.0 mi ENE 5.8 mph - 0.02 in   Overcast